Location: Baix
(44.7118°N, 4.7648°E)
Time: 06:39:45
(UTC+00:00)

A-11 Canister half - Pass Details

Date: 28 November 2020
Orbit: 1517 x 1683 km, 47.2° (Epoch: 22 January)

Event Time Altitude Azimuth Distance (km) Brightness Sun altitude
Rises 17:03:27 0° 292° (WNW) 4,920 12.5 -10.6°
Reaches altitude 10° 17:06:37 10° 290° (WNW) 3,940 11.9 -11.1°
Maximum altitude 17:16:37 66° 212° (SSW) 1,812 9.6 -12.8°
Drops below altitude 10° 17:26:33 10° 133° (SE) 3,913 10.8 -14.5°
Sets 17:29:42 0° 131° (SE) 4,884 11.3 -15.0°
